User: anonymous   Login
Location: Unspecified
(0.0000°N, 0.0000°E)
Time: 12:03:37
(UTC+01:00)
Language:

Cosmos 1515 Rocket - Orbit

View from above orbital plane
View from above orbital plane
View from above satellite
View from above satellite

Ground track
Ground track

The orbit data is extracted from the following two-line orbital elements,

1 14552U 83122B   15086.54326770  .00000526  00000-0  61557-4 0  9998
2 14552 082.5225 117.2765 0016283 322.7240 037.2843 14.83122125688718
Epoch (UTC): 27 March 2015 13:02:18
Eccentricity: 0.0016283
inclination: 82.5225°
perigee height: 608 km
apogee height: 631 km
right ascension of ascending node: 117.2765°
argument of perigee: 322.7240°
revolutions per day: 14.83122125
mean anomaly at epoch: 37.2843°
orbit number at epoch: 68871

The dashed part of the orbit path shows where the satellite is in the earth's shadow,  

DLR